sat.trackr.live / text

‹ back to catalog

STARLINK-35092

NORAD 65342 · 2025-189V

PAYLOAD ACTIVE UNKNOWN

§ Identity

Operator
Country
US
Launch date
2025-08-27
Launch site
AFETR
Launch vehicle
Mass (kg)
RCS (m²)

Purposes: comms

External: N2YO · Heavens-Above · Gunter

§ Orbital elements

Epoch: 2026-05-24T21:50:30.905952Z

Period
94.01 min
Inclination
53.1594°
Eccentricity
0.0001149
Mean motion
15.31712132 rev/d
Perigee alt
469.9 km
Apogee alt
471.5 km
Semi-major
6,848.8 km
B*
7.3506e-4
RAAN
212.1999°
Arg perigee
81.8442°
Mean anomaly
278.2690°
Rev number
4,269

§ Raw data

STARLINK-350921 65342U 25189V   26144.91007993  .00022522  00000+0  73506-3 0  99962 65342  53.1594 212.1999 0001149  81.8442 278.2690 15.31712132 42695

JSON: /api/v1/satellites/65342 · /tle

For live sub-satellite position, see the globe view (requires WebGL).

§ Visibility from observer

Set your observer location to see the next 7 days of passes ≥ 10°. The values pass through the URL so the page stays shareable.

No JS? Fill the form by hand. The geolocation button needs JavaScript.